Location: Bakhuizen
(52.8696°N, 5.4575°E)
Time: 05:38:32
(UTC+00:00)

Nimbus 7 Rocket - Pass Details

Date: 04 October 2021
Orbit: 922 x 965 km, 99.4° (Epoch: 17 October)

Event Time Altitude Azimuth Distance (km) Brightness Sun altitude
Rises 00:37:17 0° 13° (NNE) 3,590 8.3 -39.4°
Reaches altitude 10° 00:39:49 10° 7° (N) 2,647 7.4 -39.2°
Enters shadow 00:42:42 27° 349° (N) 1,705 6.1 -39.0°
